Content
SEND FEEDBACK

Daily
Averages
Monthly
Summary
United States of America

FRUITLAND, OREGON


Home > North America > United States > Oregon
Elevation: 2146 feet     Latitude: 44 04N     Longitude: 116 56W

WEATHER
 
SELECT A DAY
Number of Records: 164,326;   Date Range: 4/9/97 - 9/20/14
 
SHARE

PRINT THIS DATA

[ ← Previous Day ]
WEATHER ALMANAC - FEBRUARY 13, 2013
[ Next Day → ]
[ °C ]   °F
Weather ElementAverageHighLow
Temperature40.6 °F52 °F (3:53 pm)30 °F (6:53 am)
Dewpoint30.1 °F34 °F (5:53 pm)27 °F (2:53 am)
Humidity68.4 %92 % (6:53 am)48 % (1:53 pm)
Barometer30.36 in30.40 in (1:53 am)30.30 in (3:53 pm)
Wind Speed2.8 mph15 mph (10:53 pm)
Weather ElementAverage
Visibility10 mi
Wind DirectionESE (110.9 °)

Weather ElementTotal
Precipitation---
Heating Degree Days24 (Base 65)
Averaged from 23 records on February 13, 2013
WEATHER CONDITIONS BREAKOUT
WIND DIRECTION BREAKOUT
WEATHER BY HOUR - FEBRUARY 13, 2013
[ °C ]   °F
Local TimeTemperatureDewpointHumidityBarometerVisibilityWind DirectionWind SpeedGust SpeedPrecipitationEventsConditions
1:53 AM32.0 °F28.0 °F85 %30.40 in10.0 miCalmPartly Cloudy
2:53 AM30.9 °F27.0 °F85 %30.40 in10.0 miCalmPartly Cloudy
3:53 AM30.9 °F27.0 °F85 %30.39 in10.0 miCalmOvercast
4:53 AM30.9 °F28.0 °F89 %30.39 in10.0 miWNW (290°)3.5 mphOvercast
5:53 AM32.0 °F28.9 °F88 %30.37 in10.0 miCalmOvercast
6:53 AM30.0 °F28.0 °F92 %30.37 in10.0 miENE (60°)3.5 mphClear
7:53 AM32.0 °F28.9 °F88 %30.39 in10.0 miCalmClear
8:53 AM30.9 °F28.0 °F89 %30.39 in10.0 miWest (260°)3.5 mphClear
9:53 AM36.0 °F30.0 °F79 %30.40 in10.0 miNE (40°)3.5 mphClear
10:53 AM39.0 °F30.9 °F73 %30.39 in10.0 miCalmClear
11:53 AM43.0 °F33.1 °F68 %30.38 in10.0 miCalmClear
12:53 PM48.9 °F33.1 °F54 %30.35 in10.0 miCalmClear
1:53 PM51.1 °F32.0 °F48 %30.33 in10.0 miWest (270°)3.5 mphPartly Cloudy
2:53 PM51.1 °F32.0 °F48 %30.31 in10.0 miCalmClear
3:53 PM52.0 °F33.1 °F49 %30.30 in10.0 miNE (50°)5.8 mphClear
4:53 PM52.0 °F33.1 °F49 %30.30 in10.0 miENE (70°)3.5 mphClear
5:53 PM50.0 °F34.0 °F54 %30.31 in10.0 miCalmClear
6:53 PM46.0 °F32.0 °F58 %30.33 in10.0 miNorth (360°)3.5 mphMostly Cloudy
7:53 PM43.0 °F30.9 °F62 %30.35 in10.0 miCalmMostly Cloudy
8:53 PM42.1 °F28.9 °F60 %30.35 in10.0 miWest (260°)6.9 mphMostly Cloudy
9:53 PM42.1 °F28.9 °F60 %30.36 in10.0 miWSW (250°)6.9 mphMostly Cloudy
10:53 PM45.0 °F28.0 °F52 %30.37 in10.0 miWNW (300°)15.0 mphOvercast
11:53 PM42.1 °F28.0 °F58 %30.38 in10.0 miNNW (340°)4.6 mphScattered Clouds
Hourly data recorded from KONO, located miles away from Fruitland, Oregon







STORIES FROM OUR PARTNERS